Total_Precipitation_Accumulation
0.03 0.03 0.07 0.05 0.03 0.04 0.08 0.08 0.08 0.08 0.10 0.12 0.10 0.09 0.11 0.13 0.11 0.07 0.05 0.06 0.07 0.10 0.13 0.14 0.17 0.17 0.18 0.19 0.19 0.17 0.17 0.19 0.26 0.26 0.24 0.25 0.31 0.43 0.62 0.69 0.66 0.48 0.38
0.01 0.02 0.07 0.06 0.04 0.05 0.08 0.09 0.10 0.10 0.09 0.08 0.10 0.12 0.16 0.14 0.13 0.08 0.06 0.06 0.07 0.07 0.09 0.11 0.12 0.13 0.14 0.14 0.13 0.12 0.13 0.17 0.24 0.28 0.24 0.19 0.30 0.47 0.58 0.57 0.71 0.50 0.36
0.01 0.01 0.04 0.05 0.05 0.04 0.05 0.08 0.12 0.13 0.10 0.08 0.10 0.13 0.14 0.14 0.13 0.11 0.10 0.07 0.06 0.06 0.07 0.07 0.08 0.09 0.08 0.07 0.08 0.10 0.11 0.14 0.22 0.34 0.51 0.40 0.23 0.45 0.52 0.51 0.44 0.30 0.27
0.01 0.01 0.01 0.04 0.04 0.04 0.05 0.07 0.11 0.13 0.09 0.09 0.15 0.16 0.12 0.13 0.15 0.13 0.13 0.09 0.08 0.06 0.06 0.06 0.06 0.06 0.05 0.04 0.05 0.08 0.10 0.16 0.28 0.54 0.89 0.56 0.30 0.33 0.44 0.39 0.28 0.25 0.26
0.01 0.01 0.02 0.04 0.04 0.04 0.05 0.06 0.09 0.11 0.10 0.10 0.14 0.14 0.11 0.14 0.16 0.14 0.12 0.12 0.13 0.09 0.05 0.06 0.06 0.05 0.04 0.04 0.05 0.07 0.10 0.17 0.34 0.64 0.73 0.64 0.57 0.38 0.36 0.37 0.36 0.35 0.34
0.02 0.01 0.02 0.04 0.05 0.05 0.05 0.06 0.08 0.10 0.10 0.09 0.09 0.11 0.11 0.16 0.21 0.19 0.14 0.16 0.19 0.17 0.10 0.06 0.06 0.06 0.06 0.04 0.05 0.07 0.12 0.25 0.43 0.51 0.46 0.51 0.62 0.48 0.39 0.53 0.64 0.59 0.51
0.02 0.02 0.03 0.05 0.06 0.06 0.06 0.07 0.08 0.09 0.09 0.07 0.07 0.08 0.08 0.12 0.17 0.18 0.15 0.16 0.17 0.15 0.13 0.10 0.08 0.08 0.08 0.08 0.07 0.09 0.16 0.32 0.51 0.47 0.43 0.53 0.59 0.39 0.46 0.70 0.95 0.85 0.69
0.03 0.02 0.04 0.06 0.07 0.07 0.07 0.07 0.08 0.07 0.07 0.07 0.06 0.06 0.07 0.08 0.11 0.13 0.14 0.13 0.12 0.10 0.10 0.11 0.12 0.11 0.10 0.10 0.10 0.13 0.18 0.23 0.37 0.48 0.44 0.51 0.39 0.33 0.55 0.79 0.98 0.92 0.79
0.06 0.04 0.06 0.07 0.07 0.07 0.08 0.08 0.08 0.07 0.07 0.07 0.07 0.07 0.07 0.08 0.08 0.10 0.14 0.13 0.13 0.13 0.15 0.15 0.13 0.12 0.12 0.11 0.10 0.14 0.19 0.24 0.35 0.53 0.56 0.68 0.53 0.52 0.75 0.91 0.94 0.94 0.87
0.18 0.11 0.10 0.09 0.10 0.10 0.09 0.09 0.10 0.10 0.09 0.10 0.09 0.09 0.09 0.10 0.12 0.16 0.17 0.17 0.17 0.19 0.20 0.23 0.24 0.22 0.21 0.18 0.19 0.24 0.27 0.28 0.33 0.49 0.73 0.71 0.62 0.77 0.98 1.05 1.09 1.07 1.06
0.47 0.31 0.21 0.16 0.14 0.14 0.13 0.12 0.14 0.16 0.16 0.16 0.18 0.17 0.16 0.18 0.28 0.37 0.31 0.35 0.35 0.37 0.40 0.44 0.46 0.44 0.39 0.31 0.35 0.48 0.44 0.39 0.48 0.73 0.87 0.77 0.69 0.94 1.18 1.22 1.26 1.29 1.28
0.73 0.58 0.43 0.36 0.25 0.23 0.26 0.32 0.32 0.30 0.34 0.35 0.46 0.47 0.44 0.52 0.52 0.43 0.51 0.67 0.73 0.86 0.88 0.92 0.97 0.83 0.68 0.59 0.97 1.18 0.52 0.57 0.70 0.89 1.12 1.00 0.98 1.24 1.49 1.38 1.28 1.33 1.31
0.94 0.66 0.55 0.61 0.55 0.50 0.57 0.52 0.47 0.50 0.61 0.62 0.65 0.71 0.81 0.74 0.61 0.58 0.71 0.89 1.03 1.19 1.34 1.69 1.77 1.38 1.32 1.33 1.42 1.31 0.73 0.69 0.74 0.80 1.15 1.23 1.25 1.56 1.86 1.66 1.45 1.38 1.36
1.02 0.79 0.70 0.74 0.84 0.77 0.70 0.68 0.66 0.65 0.74 0.78 0.90 0.98 1.13 1.02 0.91 0.94 1.10 1.22 1.41 1.54 1.82 2.01 2.23 2.02 1.78 1.57 1.50 1.35 1.16 1.08 1.00 1.13 1.41 1.22 1.31 1.62 1.92 1.83 1.60 1.46 1.40
1.16 1.01 0.88 0.87 1.01 0.99 0.90 0.87 0.83 0.82 0.83 1.00 1.15 1.24 1.35 1.39 1.46 1.53 1.45 1.59 1.66 1.81 2.00 2.29 2.34 2.46 2.47 2.37 2.02 1.73 1.63 1.50 1.36 1.53 1.74 1.60 1.39 1.47 1.76 1.98 1.84 1.63 1.50
1.57 1.41 1.20 1.08 1.03 1.06 1.07 1.07 1.11 1.11 1.22 1.34 1.52 1.58 1.76 1.92 2.00 2.14 2.11 2.10 1.94 1.96 2.14 2.44 2.59 2.96 2.84 2.68 2.18 1.96 1.78 1.72 1.46 1.46 1.68 1.82 1.49 1.36 1.50 1.86 2.04 1.93 1.74
1.82 1.81 1.65 1.52 1.48 1.59 1.75 1.71 1.60 1.69 1.78 1.85 1.97 2.02 2.12 2.19 2.30 2.45 2.38 2.27 2.24 2.27 2.39 2.55 2.69 2.80 2.56 2.48 2.30 2.13 1.89 1.68 1.44 1.41 1.52 1.67 1.58 1.39 1.39 1.57 1.87 1.98 1.91
1.80 1.97 2.01 1.96 2.10 2.28 2.46 2.45 2.31 2.27 2.26 2.26 2.24 2.27 2.31 2.37 2.50 2.73 2.52 2.37 2.64 2.55 2.62 2.89 2.90 2.86 2.67 2.56 2.38 2.15 1.96 1.70 1.34 1.32 1.33 1.45 1.63 1.41 1.38 1.50 1.62 1.68 1.87
1.85 2.15 2.32 2.53 2.72 2.81 2.88 2.90 2.92 2.84 2.72 2.50 2.43 2.42 2.30 2.29 2.40 2.63 2.43 2.43 2.59 2.82 2.83 2.64 3.03 2.98 2.80 2.66 2.26 1.98 1.72 1.47 1.24 1.13 1.13 1.18 1.34 1.23 1.18 1.31 1.42 1.50 1.80
2.29 2.59 2.95 3.18 3.33 3.09 2.96 2.95 2.85 2.68 2.55 2.46 2.46 2.36 2.19 2.23 2.28 2.59 2.40 2.36 2.51 2.72 2.67 2.66 2.88 2.90 2.66 2.65 2.19 1.74 1.51 1.21 1.12 1.10 1.00 1.04 1.06 0.94 0.96 1.17 1.54 1.32 1.42
2.80 3.00 3.25 3.57 3.74 3.55 3.53 3.48 3.36 3.03 2.88 2.61 2.34 2.07 1.98 1.95 2.11 2.43 2.23 2.42 2.42 2.43 2.43 2.50 2.73 2.75 2.51 2.62 2.38 1.84 1.35 1.03 0.93 0.93 0.97 0.98 0.90 0.98 1.19 1.42 1.57 1.56 1.46
2.59 2.97 3.29 3.27 3.22 3.07 3.18 3.38 3.53 3.46 3.07 2.55 2.30 2.15 1.91 1.83 1.94 2.11 2.18 2.10 2.15 2.22 2.26 2.32 2.51 2.35 2.12 2.37 2.40 2.23 1.56 1.16 0.89 0.76 1.01 1.03 0.99 1.12 1.21 1.28 1.48 1.71 1.71
2.09 2.40 2.50 2.36 2.30 2.21 2.26 2.46 2.63 2.86 2.74 2.42 2.14 1.99 1.86 1.81 1.79 1.84 1.91 1.94 1.96 1.94 1.99 2.14 2.15 2.09 1.95 2.00 2.21 2.35 1.90 1.41 1.12 0.80 0.75 0.85 1.03 1.11 1.12 1.27 1.29 1.42 1.52
1.37 1.39 1.46 1.56 1.60 1.64 1.73 1.93 2.16 2.38 2.37 2.29 2.20 1.93 1.71 1.56 1.52 1.53 1.55 1.59 1.67 1.71 1.81 1.73 1.78 1.95 1.97 1.84 1.96 2.02 1.93 1.84 1.64 1.09 0.80 0.81 1.04 1.08 1.08 1.08 1.17 1.34 1.43
1.13 1.17 1.21 1.29 1.45 1.54 1.59 1.71 1.87 2.19 2.19 2.01 1.85 1.68 1.58 1.49 1.41 1.35 1.39 1.39 1.39 1.43 1.52 1.57 1.76 1.81 1.86 1.82 1.79 1.80 1.89 1.88 1.73 1.45 1.05 0.97 0.98 0.91 0.97 1.03 1.14 1.34 1.50
0.94 1.04 1.13 1.14 1.22 1.29 1.34 1.40 1.42 1.57 1.62 1.52 1.44 1.38 1.30 1.22 1.20 1.23 1.23 1.23 1.25 1.30 1.41 1.46 1.50 1.53 1.58 1.62 1.60 1.61 1.71 1.66 1.58 1.62 1.32 1.20 1.17 1.00 1.04 1.08 1.12 1.24 1.33